Вернуться в каталог

STARLINK-5716

АктивенСвязьVLEO
NORAD 56504·PAYLOAD·🇺🇸 United States

Запущен May 14, 2023 с Cape Canaveral Space Force Station

Loading…

Ближайшие Пролёты (ближайшие 24 часа)

TLE

СвежийSource: CelesTrak SupGP

Эпоха: Sep 14, 2026, 22:30 UTC

1 56504C 23065B   26257.93798611  .00009082  00000+0  32893-3 0  2575
2 56504  43.0001 223.6957 0001161 253.9044  82.8377 15.27574418    10

Отслеживайте STARLINK-5716 в реальном времени с AllMySat

Download on the App Store